{"data":{"norad_id":69139,"intl_designator":"2026-110R","name":"STARLINK-37659","alt_names":[],"object_type":"PAYLOAD","status":"ACTIVE","operator":null,"country":"US","launch_date":"2026-05-20","launch_site_code":"AFWTR","launch_vehicle":null,"mission":null,"orbit_class":"UNKNOWN","rcs_meters":null,"size_class":null,"mass_kg":null,"dimensions":null,"purposes":["comms"],"wikipedia_slug":null,"has_3d_model":false,"image_url":null,"decayed_at":null,"tle_current":{"epoch":"2026-09-19T07:10:28.322688Z","epoch_age_seconds":127027,"freshness":"FRESH","line1":"1 69139U 26110R   26262.29893892  .00014004  00000+0  43505-3 0  9994","line2":"2 69139  97.2879  97.3947 0000654 108.8618 251.2696 15.33463603 20038","mean_motion":15.33463603,"eccentricity":6.54e-5,"inclination_deg":97.2879,"raan_deg":97.3947,"arg_perigee_deg":108.8618,"mean_anomaly_deg":251.2696,"bstar":0.00043505,"rev_number":2003,"period_min":93.9050654468,"perigee_km":465.04025253442,"apogee_km":465.9353986616,"semimajor_km":6843.624825598,"source":"CELESTRAK","updated_at":"2026-09-20T09:00:44.087320Z"}}}